Location: Newark
(34.0131°N, 4.3314°W)
Time: 16:03:04
(UTC+00:00)

Explorer 11/Cluster Stage 4 - Pass Details

Date: 23 October 2019
Orbit: 467 x 1259 km, 28.8° (Epoch: 14 November)

Event Time Altitude Azimuth Distance (km) Brightness Sun altitude
Rises 11:40:29 0° 263° (W) 2,498 9.2 44.3°
Reaches altitude 10° 11:42:48 10° 249° (WSW) 1,656 8.5 44.4°
Maximum altitude 11:45:57 26° 192° (SSW) 1,047 8.8 44.4°
Drops below altitude 10° 11:49:28 10° 135° (SE) 1,859 9.2 44.5°
Sets 11:52:14 0° 123° (ESE) 2,884 9.8 44.5°
